Regional Weather Roundup
Issued by NWS

Home | Current Version | Previous Version | Text Only | Print | Product List | Glossary Off
Versions: 1 2 3 4 5 6 7 8 9 10 11 12 13 14 15 16 17 18 19 20 21 22 23 24 25 26 27 28 29 30 31 32 33 34 35 36 37 38 39 40 41 42 43 44 45 46 47 48 49 50

000
ASUS43 KFSD 260902
RWRSD

WEATHER ROUNDUP FOR SOUTH DAKOTA
NATIONAL WEATHER SERVICE SIOUX FALLS SD
400 AM CDT THU MAY 26 2016

NOTE: "FAIR" INDICATES FEW OR NO CLOUDS BELOW 12,000 FEET WITH NO
SIGNIFICANT WEATHER AND/OR OBSTRUCTIONS TO VISIBILITY.


SDZ001>005-009-010-012>017-261000-
NORTHWEST AND NORTH CENTRAL SOUTH DAKOTA

CITY           SKY/WX    TMP DP  RH WIND       PRES   REMARKS
BUFFALO          N/A     43  39  86 S6        29.80F
FAITH            N/A     47  42  83 SW6       29.86F
MOBRIDGE       CLEAR     49  46  90 SE3       29.82S
$$

SDZ012>016-024>037-041>051-057-063-072>074-261000-
SOUTHWEST AND SOUTH CENTRAL SOUTH DAKOTA

CITY           SKY/WX    TMP DP  RH WIND       PRES   REMARKS
RAPID CTY ARPT CLEAR     44  42  93 N3        29.88F
PIERRE         CLEAR     49  46  90 W6        29.83F
CUSTER         CLOUDY    40  37  89 CALM      29.95F
ELLSWORTH AFB  CLEAR     50  45  84 SW7       29.88F
PHILIP         CLEAR     47  45  93 CALM      29.86F
PINE RIDGE     CLEAR     40  37  89 NE5       29.89F
WINNER         FAIR      53  48  83 S3        29.86F
$$

SDZ004>011-016>023-039-040-261000-
NORTHEAST SOUTH DAKOTA

CITY           SKY/WX    TMP DP  RH WIND       PRES   REMARKS
ABERDEEN       CLEAR     53  49  86 W8        29.79S
WATERTOWN      CLEAR     57  52  83 W13       29.79S
BROOKINGS      PTCLDY    56  52  86 W8        29.81S
SISSETON         N/A     59  53  80 W9        29.75R
$$

SDZ017-020-022-023-036>040-048>070-261000-
SOUTHEAST SOUTH DAKOTA

CITY           SKY/WX    TMP DP  RH WIND       PRES   REMARKS
SIOUX FALLS    CLOUDY    60  55  83 NW9       29.79F
HURON          PTCLDY    52  49  89 W8        29.82F
MITCHELL       CLEAR     57  52  83 NW7       29.83F
YANKTON        CLEAR     57  54  88 SW7       29.83R
$$

ABBREVIATIONS USED IN REMARKS
   TC - TEMPERATURE IN CELSIUS
  WCI - WIND CHILL INDEX
   HX - HEAT INDEX
  VSB - VISIBILITY





USA.gov is the U.S. government's official web portal to all federal, state and local government web resources and services.